Location: Earls Croome
(52.0667°N, 2.2000°W)
Time: 08:41:53
(UTC+00:00)

Cosmos 1833 - Pass Details

Date: 17 November 2019
Orbit: 835 x 864 km, 70.9° (Epoch: 12 December)

Event Time Altitude Azimuth Distance (km) Brightness Sun altitude
Rises 06:28:10 0° 204° (SSW) 3,372 7.3 -9.7°
Reaches altitude 10° 06:30:35 10° 203° (SSW) 2,442 6.6 -9.4°
Maximum altitude 06:36:11 79° 118° (ESE) 856 4.4 -8.5°
Drops below altitude 10° 06:41:50 10° 33° (NNE) 2,464 6.8 -7.7°
Sets 06:44:17 0° 32° (NNE) 3,406 7.5 -7.4°
